Satellite-Ground Cal/Val Region Overpasses Predictions

Prediction of Satellite NPP Overpassing Cal/Val Region: PacNW

Region Location: (Latitude: 10.00, Longitude: 139.50) to (Latitude: 22.70, Longitude: 165.60).

Table of predicted overpasses for the next 14.0 days since TLE Epoch: 4/21/2014
Interval Starting Time Starting Location Ending Time Ending Location
1 04/22/2014 03:35:22 ( 10.05, 147.04) 04/22/2014 03:38:57 ( 22.67, 144.03)
2 04/22/2014 16:07:16 ( 22.67, 144.31) 04/22/2014 16:10:51 ( 10.05, 141.30)
3 04/23/2014 03:16:22 ( 10.02, 151.80) 04/23/2014 03:19:58 ( 22.70, 148.77)
4 04/23/2014 15:48:15 ( 22.69, 149.08) 04/23/2014 15:51:51 ( 10.02, 146.05)
5 04/24/2014 02:57:22 ( 10.06, 156.55) 04/24/2014 03:00:57 ( 22.67, 153.54)
6 04/24/2014 15:29:16 ( 22.66, 153.82) 04/24/2014 15:32:51 ( 10.04, 150.81)
7 04/25/2014 02:38:22 ( 10.03, 161.31) 04/25/2014 02:41:57 ( 22.65, 158.30)
8 04/25/2014 15:10:15 ( 22.68, 158.59) 04/25/2014 15:13:51 ( 10.00, 155.56)
9 04/26/2014 02:19:57 ( 12.13, 165.59) 04/26/2014 02:22:57 ( 22.69, 163.05)
10 04/26/2014 04:00:51 ( 10.01, 140.70) 04/26/2014 04:02:18 ( 15.12, 139.51)
11 04/26/2014 14:51:16 ( 22.64, 163.33) 04/26/2014 14:54:51 ( 10.02, 160.32)
12 04/27/2014 03:41:52 ( 10.05, 145.45) 04/27/2014 03:45:27 ( 22.67, 142.43)
13 04/27/2014 14:35:12 ( 12.27, 165.59) 04/27/2014 14:35:50 ( 10.04, 165.08)
14 04/27/2014 16:13:45 ( 22.66, 142.72) 04/27/2014 16:17:20 ( 10.04, 139.70)
15 04/28/2014 03:22:51 ( 10.03, 150.21) 04/28/2014 03:26:26 ( 22.65, 147.20)
16 04/28/2014 15:54:45 ( 22.68, 147.48) 04/28/2014 15:58:21 ( 10.00, 144.45)
17 04/29/2014 03:03:51 ( 10.01, 154.97) 04/29/2014 03:07:27 ( 22.69, 151.94)
18 04/29/2014 15:35:44 ( 22.70, 152.24) 04/29/2014 15:39:20 ( 10.02, 149.21)
19 04/30/2014 02:44:51 ( 10.05, 159.72) 04/30/2014 02:48:26 ( 22.67, 156.70)
20 04/30/2014 15:16:45 ( 22.65, 156.99) 04/30/2014 15:20:20 ( 10.03, 153.97)
21 05/01/2014 02:25:51 ( 10.04, 164.48) 05/01/2014 02:29:26 ( 22.66, 161.46)
22 05/01/2014 14:57:45 ( 22.67, 161.75) 05/01/2014 15:01:20 ( 10.05, 158.73)
23
